Location: Antony
(48.7583°N, 2.3056°E)
Time: 21:29:06
(UTC+00:00)

Daily predictions for brighter satellites

Satellite Brightness Start Highest point End
(mag) Time Altitude Azimuth Time Altitude Azimuth Time Altitude Azimuth
Cosmos 2098 Rocket 4.2 16:20:50 10° N 16:27:05 70° E 16:34:16 10° SSE
USA 305 3.2 16:24:36 10° SW 16:28:44 57° SE 16:32:54 10° ENE
Cosmos 2151 4.2 16:24:44 10° NNW 16:28:53 47° W 16:32:58 10° SSW
Okean 3 Rocket 3.8 16:27:42 10° N 16:32:10 52° ENE 16:36:33 10° SSE
Cosmos-2242 3.2 16:29:07 10° SSW 16:33:26 81° W 16:37:45 10° N
Cosmos 1271 Rocket 3.1 16:29:58 10° SSE 16:33:41 44° E 16:37:29 10° NNE
SJ 16-02 1.5 16:30:24 10° NNW 16:34:42 51° ENE 16:38:58 10° SE
Cosmos 1812 Rocket 4.4 16:30:25 10° SSW 16:34:47 54° WNW 16:39:12 10° N
ERBS 3.8 16:32:27 10° S 16:34:59 22° SE 16:37:33 10° ENE
CZ-4C R/B 3.5 16:32:20 10° NNE 16:36:25 79° WNW 16:40:14 10° SSW
Cosmos 1697 Rocket 3.8 16:33:58 10° N 16:38:21 22° NE 16:42:42 10° E
Cosmos 1980 Rocket 3.8 16:35:56 10° N 16:39:17 16° NNE 16:42:37 10° ENE
SMAP 3.3 16:37:17 10° SE 16:41:45 48° ENE 16:46:14 10° N
Cosmos 1340 Rocket 4.0 16:38:53 10° NNE 16:42:09 23° ENE 16:45:25 10° ESE
CZ-4B DEB 4.5 16:40:33 10° SE 16:45:48 46° ENE 16:51:02 10° N
NOAA 6 4.1 16:42:07 10° SSE 16:47:09 57° ENE 16:52:11 10° N
GEOS 3 Rocket 4.2 16:43:02 10° ESE 16:47:50 38° NE 16:52:35 10° NNW
Lacrosse 5 rocket 2.5 16:44:46 10° WNW 16:48:02 27° NNW 16:51:28 10° NE
Cosmos 1656 4.0 16:44:12 10° NNW 16:49:24 41° NE 16:54:39 10° ESE
Cosmos 1842 Rocket 4.3 16:45:57 10° SSE 16:49:56 33° E 16:53:58 10° NNE
Cosmos 44 3.6 16:45:43 10° NNW 16:50:23 42° NE 16:54:46 10° ESE
ISS -3.5 16:50:59 10° W 16:54:22 61° NNW 16:57:13 14° ENE
RESURS DK-1 4.5 16:52:40 10° W 16:55:52 21° NW 16:59:05 10° N
CZ-2C R/B 3.1 16:51:25 10° S 16:56:28 78° WSW 17:01:19 10° NNW
SL-16 R/B 4.4 16:55:27 10° WNW 16:59:02 17° NW 17:02:38 10° N
USA 306 2.9 16:56:14 10° WSW 17:00:30 85° SSE 17:04:03 15° ENE
Cosmos 1766 Rocket 3.8 16:56:15 10° NNW 17:00:35 74° W 17:04:55 10° S
Sich 1 4.4 16:58:16 10° NNE 17:01:10 17° ENE 17:04:02 10° ESE
NOSS 2-1 (E) 2.7 17:03:11 10° SW 17:06:26 87° SE 17:09:09 15° NE
deb Kosmos-1763 4.1 17:05:32 10° S 17:08:49 47° ESE 17:11:34 14° NE
Meteor 2-2 Rocket 4.4 17:04:57 10° S 17:10:57 76° E 17:16:59 10° NNE
CZ-4C R/B 3.7 17:05:59 10° NW 17:11:42 30° NNE 17:16:42 16° ENE
USA 267 3.5 17:06:04 12° NE 17:12:07 67° NNW 17:18:34 10° WSW
CZ-2D R/B 3.4 17:09:14 10° SE 17:12:56 48° ENE 17:16:39 10° N
COSMO-SKYMED 1 3.7 17:10:55 14° NE 17:13:41 24° E 17:17:13 10° SSE
Cosmos 2221 2.4 17:10:13 10° S 17:14:26 66° E 17:18:42 10° NNE
USA 307 2.9 17:12:12 10° WSW 17:16:29 85° NNW 17:19:27 20° ENE
CORIOLIS 4.2 17:13:20 10° SSE 17:18:43 90° ENE 17:24:11 10° NNW
Lacrosse 5 3.4 17:14:12 10° WNW 17:18:55 38° SW 17:23:36 10° SSE
Cosmos 1939 Rocket 3.3 17:15:19 10° S 17:19:26 70° W 17:23:33 10° NNW
Okean O Rocket 2.3 17:15:51 10° SE 17:19:50 33° ENE 17:23:51 10° N
Cosmos 990 Rocket 4.1 17:15:39 10° NNW 17:20:45 50° ENE 17:25:47 10° SE
Meteor 2-19 Rocket 4.4 17:15:01 10° N 17:21:08 85° E 17:27:14 10° S
COSMOS 2455 4.5 17:18:26 10° SE 17:21:08 13° ESE 17:21:08 13° ESE
PSLV R/B 3.5 17:17:50 10° SSE 17:21:30 71° ENE 17:25:12 10° N
USA 229 DEB 4.0 17:14:47 10° NW 17:21:52 56° NE 17:29:26 10° ESE
USA 229 4.0 17:14:52 10° NW 17:21:58 56° NE 17:29:31 10° ESE
ATLAS CENTAUR R/B 2.2 17:19:52 10° WSW 17:23:54 50° NW 17:27:39 14° NNE
deb Chang Zheng 4 3.9 17:19:57 10° SE 17:24:01 42° ENE 17:28:06 10° N
MOS 1-B Rocket 4.2 17:18:48 10° NNE 17:24:16 45° E 17:30:15 10° S
Cosmos 1833 Rocket 3.6 17:20:41 10° SSE 17:25:18 27° ESE 17:27:36 20° ENE
CZ-4B R/B 3.2 17:22:19 10° SE 17:27:38 54° ENE 17:32:53 10° N
ATLAS 2AS CENTAUR R/B 4.0 17:22:33 10° W 17:29:39 37° NNW 17:35:57 12° NE
Cosmos 1464 Rocket 4.2 17:25:13 10° S 17:31:35 82° W 17:38:02 10° N
YAOGAN 1 3.8 17:33:05 22° NE 17:33:05 22° NE 17:35:38 10° NNE
Cosmos 1606 3.2 17:31:45 10° SSW 17:35:27 58° WNW 17:39:12 10° N
ARGOS 3.3 17:31:55 10° SE 17:37:09 51° ENE 17:42:23 10° N
USA 308 3.0 17:34:28 10° WSW 17:38:42 68° NNW 17:40:45 29° NE
Cosmos 1408 Rocket 4.1 17:36:05 10° NNW 17:40:22 60° W 17:44:39 10° S
Cosmos 1743 Rocket 3.4 17:39:40 10° N 17:44:02 82° E 17:48:21 10° SSE
NOSS 3-1 (A) 4.0 17:38:02 10° NW 17:45:21 75° NE 17:54:00 10° SE
USA 276 1.9 17:42:18 10° WNW 17:45:27 86° NNE 17:46:02 55° E
Cosmos 1461 4.5 17:43:37 10° W 17:47:17 28° NW 17:49:57 15° NNE
NOSS 2-1 (C) 4.2 17:44:46 10° WSW 17:47:45 34° NW 17:49:17 22° N
MOS 1-B 4.4 17:42:00 10° SSE 17:47:47 83° WSW 17:53:36 10° NNW
Nadezhda 4 Rocket 4.3 17:41:38 10° NNW 17:47:55 72° W 17:54:12 10° S
NOSS 3-1 (C) 4.2 17:41:40 10° NW 17:49:04 78° SW 17:57:47 10° SSE
Cosmos 2084 3.5 17:45:04 10° NW 17:49:16 55° NE 17:50:50 35° ESE
SL-24 R/B - RUBIN 2 4.5 17:46:24 10° NNW 17:50:32 30° NE 17:50:46 29° NE
H-2A R/B 2.1 17:45:53 10° SSE 17:51:09 81° WSW 17:56:18 10° NNW
Meteor 1-25 Rocket 4.1 17:45:39 10° N 17:51:14 80° ENE 17:56:49 10° SSE
ATLAS 5 CENTAUR R/B 3.0 17:42:29 10° NW 17:51:26 37° NNE 17:52:37 31° NE
Cosmos 1898 Rocket 3.4 17:51:01 10° NNW 17:56:19 72° ENE 18:01:31 10° SSE
Meteor 2-14 Rocket 4.4 17:50:32 10° N 17:56:39 64° ENE 18:02:40 10° SSE
CZ-2C R/B 2.5 17:51:35 10° NNE 17:56:49 63° E 18:01:56 10° S
Cosmos 2360 Rocket 4.3 17:55:28 10° N 17:56:38 11° NNE 17:56:38 11° NNE
NOSS 2-1 (D) 4.4 17:54:14 10° W 17:57:07 29° NW 17:58:20 23° N
Cosmos 1092 Rocket 3.9 17:50:48 10° N 17:57:13 83° E 18:03:33 10° S
CZ-4 R/B 3.2 18:00:29 18° NNE 18:00:29 18° NNE 18:01:44 10° N
NOSS 2-2 (E) 4.4 17:53:50 10° NW 17:58:42 51° NE 18:01:29 31° ESE
SKYMED 2 3.4 17:59:31 25° NNE 18:02:00 71° ESE 18:06:19 10° S
Cosmos 1809 Rocket 4.3 17:58:30 10° N 18:04:40 85° E 18:10:45 10° S
Cosmos 468 Rocket 3.9 18:00:37 10° S 18:05:42 68° ESE 18:07:57 34° NE
USA 305 3.3 18:04:34 10° W 18:08:42 50° NNW 18:09:27 44° NNE
Cosmos 1782 3.2 18:04:58 10° S 18:08:05 46° SE 18:08:05 46° SE
ERBS 2.7 18:07:33 10° WSW 18:10:32 52° NW 18:10:32 52° NW
Meteor 2-21 Rocket 4.3 18:05:25 10° N 18:11:32 63° ENE 18:17:32 10° SSE
Cosmos 1428 Rocket 4.4 18:05:31 10° N 18:11:40 89° W 18:17:49 10° S
Cosmos 2369 3.7 18:06:13 10° NNW 18:11:54 58° ENE 18:13:55 38° ESE
SJ 16-02 4.2 18:09:49 10° NW 18:12:52 19° W 18:15:55 10° SW
Cosmos 2322 Rocket 4.0 18:09:49 10° N 18:12:08 16° NNE 18:12:08 16° NNE
Cosmos 1627 Rocket 4.4 18:07:57 10° N 18:14:12 87° W 18:20:20 10° S
Cosmos 1340 Rocket 4.5 18:14:58 10° NNW 18:18:41 35° W 18:22:24 10° SSW
Cosmos 540 Rocket 3.5 18:13:58 10° S 18:18:55 54° ESE 18:18:55 54° ESE
Cosmos 1697 Rocket 2.6 18:17:24 10° NNW 18:23:03 84° WSW 18:27:53 14° SSE
Cosmos 2333 Rocket 4.4 18:23:01 10° N 18:23:29 10° NNE 18:23:29 10° NNE
Cosmos 1980 Rocket 2.2 18:18:58 10° NNW 18:24:36 58° ENE 18:25:04 56° ENE
Cosmos 1805 Rocket 4.0 18:21:12 10° NNW 18:25:30 59° W 18:29:45 10° S
GEOS 3 Rocket 4.1 18:20:33 10° SSE 18:25:42 59° SW 18:30:52 10° NW
NOAA 15 4.4 18:21:42 10° SSE 18:26:59 74° ENE 18:32:16 10° NNW
SL-16 R/B 3.8 18:22:44 10° N 18:25:27 20° NNE 18:25:27 20° NNE
Cosmos 1933 3.8 18:23:56 10° SSW 18:27:57 59° WNW 18:29:20 37° NNW
Lacrosse 5 rocket 2.9 18:24:42 10° NW 18:27:04 24° NNW 18:27:04 24° NNW
ISS -2.1 18:28:08 10° WNW 18:30:12 32° NW 18:30:12 32° NW
Cosmos 2279 Rocket 3.9 18:25:49 10° S 18:31:58 66° E 18:35:12 29° NNE
Cosmos 2082 Rocket 3.1 18:28:22 10° S 18:31:51 33° SSE 18:31:51 33° SSE
Feng Yun 1-1 Rocket 4.4 18:27:56 10° SSE 18:33:52 85° WSW 18:39:50 10° NNW
COSMOS 2406 3.1 18:30:21 10° SSW 18:36:03 71° ESE 18:36:33 67° ENE
Cosmos 2278 4.0 18:32:44 10° NNW 18:37:31 50° NNE 18:37:31 50° NNE
Sich 1 3.7 18:35:00 10° NNW 18:39:10 54° W 18:43:21 10° S
USA 306 3.9 18:36:34 10° W 18:40:03 40° NNW 18:40:03 40° NNW
Cosmos 1634 Rocket 4.2 18:34:33 10° SSW 18:40:51 73° W 18:47:14 10° N
Cosmos 1655 Rocket 4.5 18:35:09 10° N 18:39:54 44° NNE 18:39:54 44° NNE
SL-08 RB Rocket 4.1 18:37:39 10° S 18:42:16 62° W 18:46:53 10° NNW
Cosmos 1937 Rocket 3.9 18:40:23 10° NNW 18:45:40 64° WSW 18:49:00 23° S
Meteor 1-26 Rocket 4.5 18:40:43 10° SSW 18:46:37 74° WNW 18:51:36 16° N
Cosmos 1763 Rocket 4.0 18:44:09 10° SW 18:49:06 53° WNW 18:50:33 40° NNW
Cosmos 841 Rocket 4.0 18:44:31 10° SSW 18:48:11 46° S 18:48:11 46° S
COSMO-SKYMED 1 3.8 18:48:08 26° NNW 18:49:59 39° WNW 18:54:01 10° SW
NOSS 2-2 (C) 4.2 18:49:16 10° NW 18:54:20 87° NE 18:54:22 87° ENE
USA 267 3.8 18:53:24 40° NNE 18:54:37 44° N 19:00:44 10° WNW
Landsat 5 4.5 18:55:32 45° WNW 18:55:32 45° WNW 18:59:19 10° SW
Okean O Rocket 3.5 18:52:15 10° SSW 18:56:10 30° W 19:00:09 10° NNW
USA 307 4.4 18:52:40 10° WNW 18:55:29 33° NW 18:55:29 33° NW
ATLAS CENTAUR R/B 2.6 18:50:27 10° WSW 18:57:56 70° W 18:57:56 70° W
CZ-4C R/B 2.8 18:54:23 10° NW 19:01:25 71° NE 19:01:55 69° ENE
Meteor 1-14 Rocket 4.5 18:55:45 10° NNW 19:01:29 68° W 19:07:17 10° S
ATLAS CENTAUR R/B 3.9 19:01:09 10° WNW 19:03:46 16° NNW 19:03:46 16° NNW
COSMOS 2455 3.4 19:00:04 10° SSW 19:04:20 48° S 19:04:20 48° S
Cosmos 2180 Rocket 4.5 19:00:37 10° S 19:06:23 75° S 19:06:23 75° S
YAOGAN 1 4.5 19:10:14 25° NW 19:10:14 25° NW 19:12:15 10° NNW
Cosmos 1833 Rocket 3.1 19:03:21 10° SW 19:08:52 56° WNW 19:09:20 55° NW
ATLAS 2AS CENTAUR R/B 4.2 19:16:40 10° NW 19:22:49 25° N 19:23:23 25° N
Cosmos 1980 Rocket 4.2 20:03:34 10° NW 20:06:53 24° W 20:06:53 24° W
CZ-4C R/B 4.5 20:43:12 10° NW 20:47:08 29° WNW 20:47:08 29° WNW
